Language: 


Des rapports , des résumés tant et plus, au choix de chacun....


Données statistiques de la station
Quotidien Rapport Septembre 28, 2017 Unités:  Métrique    Anglais   les deux
« Précédent Jour
Suivant Jour »
Quotidien Hebdomadaire Mensuel Annuel Actuel
  Haut: Bas: Moyen:
Température: 23.3 °C 0.0 °C 17.2 °C
Pt de rosée: 20.0 °C 14.0 °C 16.1 °C
Humidité: 98 % 0 % 92 %
Vitesse du vent: 9.7 km/h 0.0 km/h 2.5 km/h
Rafales: 9.7 km/h - -
Vent:- - South
Pression: 1020.9 hPa 1018.2 hPa -
Précipitation: 1.3 mm    
Historical Graphs
 
 
Données statistiques pour Septembre 28, 2017
Heure Température Point de rosée Pression Vent Vitesse du vent Refales Humidité Pluie (taux horaire)
00:02 15.7 °C 14.0 °C 1018.8 hPa Calm     91 % 0.0 mm
00:07 15.7 °C 14.0 °C 1018.8 hPa Calm     91 % 0.0 mm
00:12 15.7 °C 14.0 °C 1018.8 hPa Calm     91 % 0.0 mm
00:17 15.7 °C 14.0 °C 1018.8 hPa Calm     91 % 0.0 mm
00:22 15.7 °C 14.0 °C 1018.8 hPa Calm     91 % 0.0 mm
00:27 15.7 °C 14.0 °C 1018.8 hPa Calm     91 % 0.0 mm
00:32 15.7 °C 14.0 °C 1018.8 hPa Calm     91 % 0.0 mm
00:38 15.7 °C 14.0 °C 1018.8 hPa Calm     91 % 0.0 mm
00:43 15.7 °C 14.0 °C 1018.8 hPa Calm     91 % 0.0 mm
00:48 15.7 °C 14.0 °C 1018.8 hPa Calm     91 % 0.0 mm
00:53 15.7 °C 14.0 °C 1018.8 hPa Calm     91 % 0.0 mm
00:58 15.7 °C 14.0 °C 1018.8 hPa Calm     91 % 0.0 mm
01:03 15.3 °C 14.0 °C 1018.2 hPa Calm     92 % 0.0 mm
01:08 15.4 °C 14.0 °C 1018.2 hPa Calm   6.9 km/h 93 % 0.0 mm
01:13 15.4 °C 14.0 °C 1018.2 hPa Calm   6.9 km/h 93 % 0.0 mm
01:18 15.4 °C 14.0 °C 1018.8 hPa Calm   3.5 km/h 93 % 0.0 mm
01:23 15.5 °C 15.0 °C 1018.8 hPa Calm   3.5 km/h 93 % 0.0 mm
01:28 15.5 °C 15.0 °C 1018.8 hPa Calm   3.5 km/h 93 % 0.0 mm
01:33 15.5 °C 15.0 °C 1018.8 hPa Calm   1.8 km/h 93 % 0.0 mm
01:38 15.5 °C 15.0 °C 1018.8 hPa Calm     93 % 0.0 mm
01:42 15.5 °C 15.0 °C 1018.8 hPa Calm     93 % 0.0 mm
01:47 15.5 °C 15.0 °C 1018.8 hPa Calm   3.5 km/h 93 % 0.0 mm
01:52 15.5 °C 15.0 °C 1018.8 hPa Calm   3.5 km/h 93 % 0.0 mm
01:57 15.5 °C 15.0 °C 1018.8 hPa Calm   1.4 km/h 93 % 0.0 mm
02:02 15.5 °C 15.0 °C 1018.8 hPa Calm   1.4 km/h 93 % 0.0 mm
02:07 15.5 °C 15.0 °C 1018.8 hPa Calm     93 % 0.0 mm
02:12 15.5 °C 15.0 °C 1018.8 hPa Calm     93 % 0.0 mm
02:17 15.5 °C 15.0 °C 1018.8 hPa Calm     93 % 0.0 mm
02:22 15.5 °C 15.0 °C 1018.8 hPa Calm     93 % 0.0 mm
02:27 15.5 °C 15.0 °C 1018.8 hPa Calm     93 % 0.0 mm
02:32 15.4 °C 14.0 °C 1018.8 hPa Calm     93 % 0.0 mm
02:37 15.4 °C 14.0 °C 1018.8 hPa Calm   2.1 km/h 93 % 0.0 mm
02:42 15.4 °C 14.0 °C 1018.8 hPa Calm   2.1 km/h 94 % 0.0 mm
02:47 15.4 °C 14.0 °C 1018.2 hPa Calm     94 % 0.0 mm
02:52 15.4 °C 14.0 °C 1018.2 hPa Calm     94 % 0.0 mm
02:57 15.4 °C 14.0 °C 1018.2 hPa Calm     94 % 0.0 mm
03:02 0.0 °C 14.0 °C 1018.8 hPa Calm     0 % 0.3 mm
03:07 15.3 °C 14.0 °C 1018.8 hPa Calm     94 % 0.3 mm
03:08 15.3 °C 14.0 °C 1018.8 hPa Calm     94 % 0.3 mm
03:14 15.3 °C 14.0 °C 1018.8 hPa Calm     94 % 0.3 mm
03:19 15.3 °C 14.0 °C 1018.8 hPa Calm     94 % 0.5 mm
03:24 15.3 °C 15.0 °C 1018.8 hPa Calm     95 % 0.5 mm
03:29 15.2 °C 15.0 °C 1018.8 hPa Calm     95 % 0.5 mm
03:34 15.3 °C 15.0 °C 1018.8 hPa Calm     95 % 0.8 mm
03:39 15.3 °C 15.0 °C 1018.8 hPa Calm     95 % 0.8 mm
03:44 15.3 °C 15.0 °C 1018.8 hPa Calm     95 % 0.8 mm
03:49 15.2 °C 15.0 °C 1018.8 hPa Calm     96 % 0.8 mm
03:54 15.2 °C 15.0 °C 1018.8 hPa Calm     96 % 0.8 mm
03:59 15.1 °C 15.0 °C 1018.8 hPa Calm     96 % 0.5 mm
04:04 15.1 °C 15.0 °C 1018.8 hPa Calm     96 % 0.5 mm
04:10 15.1 °C 15.0 °C 1018.8 hPa Calm     96 % 0.5 mm
04:15 15.0 °C 15.0 °C 1018.8 hPa Calm     96 % 0.5 mm
04:20 15.0 °C 15.0 °C 1018.8 hPa Calm   1.8 km/h 96 % 0.3 mm
04:25 15.0 °C 15.0 °C 1018.8 hPa Calm   1.8 km/h 96 % 0.3 mm
04:30 15.0 °C 15.0 °C 1018.8 hPa Calm     96 % 0.3 mm
04:35 15.0 °C 15.0 °C 1019.9 hPa Calm     97 % 0.0 mm
04:40 15.0 °C 15.0 °C 1019.9 hPa Calm     97 % 0.0 mm
04:45 15.1 °C 15.0 °C 1018.8 hPa Calm     97 % 0.0 mm
04:50 15.1 °C 15.0 °C 1018.8 hPa Calm     97 % 0.0 mm
04:55 15.1 °C 15.0 °C 1018.8 hPa Calm     97 % 0.0 mm
05:00 15.1 °C 15.0 °C 1018.8 hPa Calm     97 % 0.0 mm
05:05 15.1 °C 15.0 °C 1018.8 hPa Calm     97 % 0.0 mm
05:10 15.1 °C 15.0 °C 1018.8 hPa Calm     97 % 0.3 mm
05:16 15.1 °C 15.0 °C 1018.8 hPa Calm     98 % 0.3 mm
05:21 15.1 °C 15.0 °C 1018.8 hPa Calm     98 % 0.3 mm
05:26 15.1 °C 15.0 °C 1018.8 hPa Calm     98 % 0.3 mm
05:31 15.2 °C 15.0 °C 1018.8 hPa Calm   2.1 km/h 98 % 0.3 mm
05:36 15.2 °C 15.0 °C 1018.8 hPa Calm   2.1 km/h 98 % 0.3 mm
05:41 15.2 °C 15.0 °C 1018.8 hPa Calm     98 % 0.3 mm
05:46 15.2 °C 15.0 °C 1018.8 hPa Calm     98 % 0.3 mm
05:51 15.2 °C 15.0 °C 1018.8 hPa Calm     98 % 0.3 mm
05:56 15.2 °C 15.0 °C 1018.8 hPa Calm     98 % 0.3 mm
06:01 15.2 °C 15.0 °C 1018.8 hPa Calm     98 % 0.3 mm
06:02 15.3 °C 15.0 °C 1018.8 hPa Calm     98 % 0.3 mm
06:08 15.3 °C 15.0 °C 1018.8 hPa Calm     98 % 0.0 mm
06:13 15.3 °C 15.0 °C 1018.8 hPa Calm     98 % 0.0 mm
06:18 15.3 °C 15.0 °C 1018.2 hPa ESE 5.8 km/h 5.8 km/h 98 % 0.0 mm
06:23 15.3 °C 15.0 °C 1018.2 hPa Calm   5.8 km/h 98 % 0.0 mm
06:28 15.3 °C 15.0 °C 1018.2 hPa Calm   5.8 km/h 98 % 0.0 mm
06:38 15.4 °C 15.0 °C 1018.8 hPa Calm     98 % 0.0 mm
06:43 15.4 °C 15.0 °C 1018.8 hPa Calm     98 % 0.0 mm
06:48 15.4 °C 15.0 °C 1018.8 hPa Calm     98 % 0.0 mm
06:53 15.4 °C 15.0 °C 1018.8 hPa SE 5.5 km/h 5.5 km/h 98 % 0.0 mm
06:58 15.4 °C 15.0 °C 1018.8 hPa SE 5.5 km/h 5.5 km/h 98 % 0.0 mm
07:03 15.5 °C 16.0 °C 1018.8 hPa Calm   5.5 km/h 98 % 0.0 mm
07:08 15.5 °C 16.0 °C 1018.8 hPa Calm   1.4 km/h 98 % 0.0 mm
07:13 15.5 °C 16.0 °C 1018.8 hPa SSE 4.3 km/h 7.9 km/h 98 % 0.0 mm
07:18 15.5 °C 16.0 °C 1018.8 hPa SSE 1.4 km/h 7.9 km/h 98 % 0.0 mm
07:23 15.5 °C 16.0 °C 1018.8 hPa SE 4.0 km/h 5.8 km/h 98 % 0.0 mm
07:28 15.6 °C 16.0 °C 1018.8 hPa SE 5.0 km/h 5.8 km/h 98 % 0.0 mm
07:33 15.6 °C 16.0 °C 1018.8 hPa Calm   5.8 km/h 98 % 0.0 mm
07:38 15.6 °C 16.0 °C 1018.8 hPa SSE 1.8 km/h 5.0 km/h 98 % 0.0 mm
07:43 15.6 °C 16.0 °C 1018.8 hPa Calm   5.0 km/h 98 % 0.0 mm
07:48 15.6 °C 16.0 °C 1018.8 hPa Calm   4.7 km/h 98 % 0.0 mm
07:51 15.7 °C 16.0 °C 1018.8 hPa SE 4.3 km/h 5.5 km/h 98 % 0.0 mm
07:56 15.7 °C 16.0 °C 1018.8 hPa SE 3.5 km/h 5.5 km/h 98 % 0.0 mm
08:01 15.7 °C 16.0 °C 1018.8 hPa Calm   5.5 km/h 98 % 0.0 mm
08:11 15.7 °C 16.0 °C 1018.8 hPa Calm   4.7 km/h 98 % 0.0 mm
08:16 15.7 °C 16.0 °C 1018.2 hPa SSE 3.5 km/h 4.7 km/h 98 % 0.0 mm
08:21 15.7 °C 16.0 °C 1018.2 hPa Calm   4.7 km/h 98 % 0.0 mm
08:26 15.7 °C 16.0 °C 1018.2 hPa Calm   4.7 km/h 98 % 0.0 mm
08:31 15.7 °C 16.0 °C 1018.8 hPa SSE 5.0 km/h 9.3 km/h 98 % 0.0 mm
08:36 16.0 °C 16.0 °C 1018.8 hPa SSE 5.5 km/h 9.3 km/h 98 % 0.0 mm
08:41 16.2 °C 16.0 °C 1018.8 hPa SSE 4.3 km/h 6.1 km/h 98 % 0.0 mm
08:46 16.3 °C 16.0 °C 1018.8 hPa SSE 4.3 km/h 5.5 km/h 98 % 0.0 mm
08:51 16.3 °C 16.0 °C 1018.8 hPa SSE 4.3 km/h 4.3 km/h 98 % 0.0 mm
08:56 16.3 °C 16.0 °C 1018.8 hPa SSE 4.3 km/h 4.3 km/h 98 % 0.0 mm
09:01 16.4 °C 16.0 °C 1018.8 hPa SSE 4.3 km/h 4.3 km/h 98 % 0.0 mm
09:06 16.5 °C 17.0 °C 1018.8 hPa SSE 4.3 km/h 4.3 km/h 98 % 0.0 mm
09:11 16.5 °C 17.0 °C 1018.8 hPa SSE 4.3 km/h 4.3 km/h 98 % 0.0 mm
09:16 16.5 °C 17.0 °C 1018.8 hPa SSE 4.3 km/h 4.3 km/h 98 % 0.0 mm
09:21 16.6 °C 17.0 °C 1018.8 hPa SSE 4.3 km/h 4.3 km/h 98 % 0.0 mm
09:26 16.7 °C 17.0 °C 1018.8 hPa SSE 4.3 km/h 4.3 km/h 98 % 0.0 mm
09:31 16.8 °C 17.0 °C 1018.8 hPa SSE 4.3 km/h 4.3 km/h 98 % 0.0 mm
09:36 16.8 °C 17.0 °C 1018.8 hPa SSE 4.3 km/h 4.3 km/h 98 % 0.0 mm
09:42 16.8 °C 17.0 °C 1018.8 hPa SSE 4.3 km/h 4.3 km/h 98 % 0.0 mm
09:47 16.9 °C 17.0 °C 1018.8 hPa SSE 4.3 km/h 4.3 km/h 98 % 0.0 mm
09:52 16.9 °C 17.0 °C 1018.8 hPa SSE 4.3 km/h 4.3 km/h 98 % 0.0 mm
09:57 17.0 °C 17.0 °C 1018.8 hPa SSE 4.3 km/h 4.3 km/h 97 % 0.0 mm
10:02 17.2 °C 17.0 °C 1018.8 hPa SSE 4.3 km/h 4.3 km/h 97 % 0.0 mm
10:07 17.2 °C 17.0 °C 1018.8 hPa SSE 4.7 km/h 4.7 km/h 97 % 0.0 mm
10:12 17.2 °C 17.0 °C 1018.8 hPa SSE 4.7 km/h 4.7 km/h 97 % 0.0 mm
10:17 17.1 °C 17.0 °C 1019.9 hPa SSE 4.7 km/h 4.7 km/h 97 % 0.0 mm
10:22 17.0 °C 17.0 °C 1019.9 hPa SSE 4.7 km/h 4.7 km/h 97 % 0.0 mm
10:27 17.1 °C 17.0 °C 1019.9 hPa SSE 4.7 km/h 4.7 km/h 97 % 0.0 mm
10:32 17.1 °C 17.0 °C 1019.9 hPa SSE 4.7 km/h 4.7 km/h 97 % 0.0 mm
10:37 17.1 °C 17.0 °C 1019.9 hPa SSE 4.7 km/h 4.7 km/h 97 % 0.0 mm
10:42 17.2 °C 17.0 °C 1019.9 hPa SSE 4.7 km/h 4.7 km/h 97 % 0.0 mm
10:47 17.3 °C 17.0 °C 1019.9 hPa SSE 4.7 km/h 4.7 km/h 97 % 0.0 mm
10:52 17.3 °C 17.0 °C 1019.9 hPa SSE 4.7 km/h 4.7 km/h 97 % 0.0 mm
10:57 17.3 °C 17.0 °C 1019.9 hPa SSE 4.7 km/h 4.7 km/h 97 % 0.0 mm
11:02 17.3 °C 17.0 °C 1019.9 hPa SSE 4.7 km/h 4.7 km/h 97 % 0.0 mm
11:07 17.3 °C 17.0 °C 1019.9 hPa SSE 4.7 km/h 4.7 km/h 97 % 0.0 mm
11:12 17.3 °C 17.0 °C 1019.9 hPa SSE 4.7 km/h 4.7 km/h 97 % 0.0 mm
11:17 17.3 °C 17.0 °C 1018.8 hPa SSE 4.7 km/h 4.7 km/h 97 % 0.0 mm
11:22 17.3 °C 17.0 °C 1018.8 hPa SSE 4.7 km/h 4.7 km/h 97 % 0.0 mm
11:27 17.7 °C 17.0 °C 1018.8 hPa SSE 4.7 km/h 4.7 km/h 97 % 0.0 mm
11:32 17.7 °C 17.0 °C 1018.8 hPa SSE 4.7 km/h 4.7 km/h 97 % 0.0 mm
11:37 18.0 °C 18.0 °C 1018.8 hPa SSE 4.7 km/h 4.7 km/h 97 % 0.0 mm
11:42 18.7 °C 18.0 °C 1018.8 hPa SSE 4.7 km/h 4.7 km/h 97 % 0.0 mm
11:47 18.9 °C 19.0 °C 1019.9 hPa SSE 4.7 km/h 4.7 km/h 97 % 0.0 mm
11:52 18.8 °C 18.0 °C 1019.9 hPa SSE 4.7 km/h 4.7 km/h 96 % 0.0 mm
11:57 18.8 °C 18.0 °C 1019.9 hPa SSE 4.7 km/h 4.7 km/h 96 % 0.0 mm
12:02 19.0 °C 18.0 °C 1018.8 hPa SSE 4.7 km/h 4.7 km/h 95 % 0.0 mm
12:07 19.1 °C 18.0 °C 1018.8 hPa SSE 4.7 km/h 4.7 km/h 95 % 0.0 mm
12:12 19.1 °C 18.0 °C 1018.8 hPa SSE 4.7 km/h 4.7 km/h 95 % 0.0 mm
12:17 18.7 °C 18.0 °C 1019.9 hPa SSE 4.7 km/h 4.7 km/h 94 % 0.0 mm
12:22 18.7 °C 18.0 °C 1019.9 hPa SSE 4.7 km/h 4.7 km/h 94 % 0.0 mm
12:27 18.7 °C 18.0 °C 1019.9 hPa SSE 4.7 km/h 4.7 km/h 94 % 0.0 mm
12:32 18.5 °C 18.0 °C 1018.8 hPa SSE 4.7 km/h 4.7 km/h 95 % 0.0 mm
12:37 18.4 °C 18.0 °C 1018.8 hPa SSE 4.7 km/h 4.7 km/h 95 % 0.0 mm
12:42 18.3 °C 18.0 °C 1018.8 hPa SSW 7.6 km/h 7.6 km/h 95 % 0.0 mm
12:47 18.2 °C 18.0 °C 1019.9 hPa SSW 7.6 km/h 7.6 km/h 95 % 0.0 mm
12:52 18.3 °C 18.0 °C 1019.9 hPa SSW 7.6 km/h 7.6 km/h 95 % 0.0 mm
12:57 18.3 °C 18.0 °C 1019.9 hPa SSW 7.6 km/h 7.6 km/h 96 % 0.0 mm
13:02 18.3 °C 18.0 °C 1019.9 hPa SSW 7.6 km/h 7.6 km/h 95 % 0.0 mm
13:07 18.3 °C 18.0 °C 1019.9 hPa SSW 7.6 km/h 7.6 km/h 95 % 0.0 mm
13:12 18.4 °C 18.0 °C 1019.9 hPa SSW 7.6 km/h 7.6 km/h 95 % 0.0 mm
13:18 18.4 °C 18.0 °C 1019.9 hPa SSW 7.6 km/h 7.6 km/h 95 % 0.0 mm
13:23 18.4 °C 18.0 °C 1019.9 hPa SSW 7.6 km/h 7.6 km/h 95 % 0.0 mm
13:28 18.8 °C 18.0 °C 1019.9 hPa SSW 7.6 km/h 7.6 km/h 95 % 0.0 mm
13:33 18.8 °C 18.0 °C 1019.9 hPa SSW 7.6 km/h 7.6 km/h 95 % 0.0 mm
13:38 18.9 °C 18.0 °C 1019.9 hPa SSW 7.6 km/h 7.6 km/h 95 % 0.0 mm
13:43 18.9 °C 18.0 °C 1019.9 hPa Calm     94 % 0.0 mm
13:48 18.7 °C 18.0 °C 1019.9 hPa Calm     94 % 0.0 mm
13:53 18.6 °C 18.0 °C 1019.9 hPa Calm     93 % 0.0 mm
13:58 18.6 °C 18.0 °C 1019.9 hPa Calm     94 % 0.0 mm
14:03 18.9 °C 18.0 °C 1019.9 hPa Calm     94 % 0.0 mm
14:08 20.2 °C 19.0 °C 1019.9 hPa Calm     93 % 0.0 mm
14:13 20.0 °C 19.0 °C 1019.9 hPa Calm     92 % 0.0 mm
14:18 19.8 °C 18.0 °C 1019.9 hPa Calm     92 % 0.0 mm
14:24 19.7 °C 18.0 °C 1019.9 hPa Calm     91 % 0.0 mm
14:29 19.8 °C 18.0 °C 1019.9 hPa Calm     92 % 0.0 mm
14:34 19.9 °C 19.0 °C 1019.9 hPa Calm     91 % 0.0 mm
14:39 19.9 °C 19.0 °C 1019.9 hPa Calm     91 % 0.0 mm
14:44 19.9 °C 19.0 °C 1019.9 hPa Calm     91 % 0.0 mm
14:49 19.9 °C 19.0 °C 1019.9 hPa Calm     91 % 0.0 mm
14:54 20.6 °C 19.0 °C 1019.9 hPa SSW 7.9 km/h 9.7 km/h 88 % 0.0 mm
15:04 21.7 °C 20.0 °C 1019.9 hPa Calm   9.7 km/h 87 % 0.0 mm
15:09 22.2 °C 20.0 °C 1019.9 hPa Calm   7.9 km/h 85 % 0.0 mm
15:14 22.3 °C 19.0 °C 1019.9 hPa Calm     81 % 0.0 mm
15:19 21.6 °C 18.0 °C 1019.9 hPa Calm     81 % 0.0 mm
15:24 22.1 °C 19.0 °C 1019.9 hPa Calm     81 % 0.0 mm
15:29 22.3 °C 19.0 °C 1019.9 hPa Calm     79 % 0.0 mm
15:34 22.0 °C 18.0 °C 1019.9 hPa SSW 9.7 km/h 9.7 km/h 77 % 0.0 mm
15:39 22.7 °C 19.0 °C 1019.9 hPa SSW 9.7 km/h 9.7 km/h 78 % 0.0 mm
15:44 22.8 °C 18.0 °C 1019.9 hPa SSW 9.7 km/h 9.7 km/h 75 % 0.0 mm
15:49 23.0 °C 19.0 °C 1019.9 hPa SSW 9.7 km/h 9.7 km/h 76 % 0.0 mm
15:54 23.1 °C 18.0 °C 1019.9 hPa SSW 9.7 km/h 9.7 km/h 74 % 0.0 mm
16:00 23.3 °C 19.0 °C 1019.9 hPa SSW 9.7 km/h 9.7 km/h 74 % 0.0 mm
16:05 23.1 °C 18.0 °C 1019.9 hPa SSW 9.7 km/h 9.7 km/h 74 % 0.0 mm
16:10 22.4 °C 18.0 °C 1019.9 hPa SSW 9.7 km/h 9.7 km/h 74 % 0.0 mm
16:15 22.6 °C 18.0 °C 1019.9 hPa SSW 9.7 km/h 9.7 km/h 76 % 0.0 mm
16:20 22.0 °C 18.0 °C 1019.9 hPa SSW 9.7 km/h 9.7 km/h 75 % 0.0 mm
16:25 21.4 °C 17.0 °C 1019.9 hPa SSW 9.7 km/h 9.7 km/h 75 % 0.0 mm
16:30 21.5 °C 17.0 °C 1019.9 hPa SSW 9.7 km/h 9.7 km/h 76 % 0.0 mm
16:35 21.9 °C 18.0 °C 1019.9 hPa SSW 9.7 km/h 9.7 km/h 78 % 0.0 mm
16:36 22.2 °C 18.0 °C 1019.9 hPa SSW 9.7 km/h 9.7 km/h 77 % 0.0 mm
16:41 22.3 °C 18.0 °C 1019.9 hPa SSW 9.7 km/h 9.7 km/h 76 % 0.0 mm
16:46 22.0 °C 18.0 °C 1020.9 hPa SSW 9.7 km/h 9.7 km/h 75 % 0.0 mm
16:51 21.7 °C 17.0 °C 1020.9 hPa SSW 9.7 km/h 9.7 km/h 75 % 0.0 mm
16:56 21.4 °C 17.0 °C 1020.9 hPa SSW 9.7 km/h 9.7 km/h 76 % 0.0 mm
17:02 21.3 °C 17.0 °C 1019.9 hPa SSW 9.7 km/h 9.7 km/h 76 % 0.0 mm
17:07 21.7 °C 18.0 °C 1019.9 hPa SSW 9.7 km/h 9.7 km/h 77 % 0.0 mm
17:12 21.3 °C 17.0 °C 1019.9 hPa SSW 9.7 km/h 9.7 km/h 76 % 0.0 mm
17:17 20.9 °C 17.0 °C 1019.9 hPa SSW 9.7 km/h 9.7 km/h 77 % 0.0 mm
17:22 21.1 °C 17.0 °C 1019.9 hPa SSW 9.7 km/h 9.7 km/h 77 % 0.0 mm
17:32 21.4 °C 17.0 °C 1019.9 hPa SSW 9.7 km/h 9.7 km/h 78 % 0.0 mm
17:37 21.3 °C 17.0 °C 1019.9 hPa SSW 9.7 km/h 9.7 km/h 76 % 0.0 mm
17:42 21.2 °C 17.0 °C 1019.9 hPa SSW 9.7 km/h 9.7 km/h 76 % 0.0 mm
17:47 21.1 °C 17.0 °C 1019.9 hPa SSW 9.7 km/h 9.7 km/h 76 % 0.0 mm
17:52 21.0 °C 17.0 °C 1019.9 hPa SSW 9.7 km/h 9.7 km/h 76 % 0.0 mm
17:57 21.0 °C 17.0 °C 1019.9 hPa SSW 9.7 km/h 9.7 km/h 75 % 0.0 mm
18:02 20.8 °C 16.0 °C 1019.9 hPa SSW 9.7 km/h 9.7 km/h 76 % 0.0 mm
18:08 20.8 °C 17.0 °C 1019.9 hPa Calm     77 % 0.0 mm
18:13 20.8 °C 17.0 °C 1019.9 hPa Calm     77 % 0.0 mm
18:14 20.8 °C 17.0 °C 1019.9 hPa Calm     77 % 0.0 mm
18:19 20.7 °C 16.0 °C 1020.9 hPa Calm     76 % 0.0 mm
18:24 20.6 °C 17.0 °C 1020.9 hPa WSW 8.7 km/h 8.7 km/h 77 % 0.0 mm
18:29 20.4 °C 16.0 °C 1020.9 hPa SSW 4.0 km/h 9.3 km/h 76 % 0.0 mm
18:34 20.3 °C 16.0 °C 1019.9 hPa SSW 4.0 km/h 9.3 km/h 77 % 0.0 mm
18:39 20.1 °C 16.0 °C 1019.9 hPa SSW 4.0 km/h 4.0 km/h 78 % 0.0 mm
18:44 19.9 °C 16.0 °C 1019.9 hPa SSW 4.0 km/h 4.0 km/h 79 % 0.0 mm
18:49 19.6 °C 16.0 °C 1020.9 hPa SSW 4.0 km/h 4.0 km/h 79 % 0.0 mm
18:54 19.3 °C 16.0 °C 1020.9 hPa SSW 1.8 km/h 1.8 km/h 80 % 0.0 mm
18:59 19.2 °C 16.0 °C 1020.9 hPa SSW 1.8 km/h 1.8 km/h 80 % 0.0 mm
19:04 18.9 °C 16.0 °C 1020.9 hPa SSW 1.8 km/h 1.8 km/h 81 % 0.0 mm
19:09 18.8 °C 15.0 °C 1020.9 hPa SSW 1.8 km/h 1.8 km/h 81 % 0.0 mm
19:14 18.5 °C 16.0 °C 1020.9 hPa SSW 1.8 km/h 1.8 km/h 82 % 0.0 mm
19:19 18.1 °C 15.0 °C 1020.9 hPa SSW 1.8 km/h 1.8 km/h 82 % 0.0 mm
19:24 17.9 °C 15.0 °C 1020.9 hPa SSW 1.8 km/h 1.8 km/h 83 % 0.0 mm
19:29 17.5 °C 15.0 °C 1020.9 hPa SSW 1.8 km/h 1.8 km/h 83 % 0.0 mm
19:34 17.2 °C 15.0 °C 1020.9 hPa Calm     84 % 0.0 mm
19:39 17.0 °C 14.0 °C 1020.9 hPa Calm     84 % 0.0 mm
19:44 16.8 °C 14.0 °C 1020.9 hPa Calm     86 % 0.0 mm
19:49 16.6 °C 14.0 °C 1020.9 hPa Calm     86 % 0.0 mm
19:54 16.4 °C 14.0 °C 1020.9 hPa Calm     87 % 0.0 mm
19:59 16.2 °C 14.0 °C 1020.9 hPa Calm     88 % 0.0 mm
20:04 16.0 °C 14.0 °C 1020.9 hPa Calm     88 % 0.0 mm
20:10 15.8 °C 14.0 °C 1020.9 hPa Calm     89 % 0.0 mm
20:15 15.6 °C 14.0 °C 1020.9 hPa Calm     90 % 0.0 mm
20:19 15.6 °C 14.0 °C 1020.9 hPa Calm     90 % 0.0 mm
20:25 15.6 °C 14.0 °C 1020.9 hPa Calm     91 % 0.0 mm
20:30 15.6 °C 14.0 °C 1020.9 hPa Calm     92 % 0.0 mm
20:35 15.6 °C 14.0 °C 1020.9 hPa Calm     92 % 0.0 mm
20:40 15.7 °C 14.0 °C 1020.9 hPa Calm     92 % 0.0 mm
20:45 15.8 °C 15.0 °C 1020.9 hPa Calm     93 % 0.0 mm
20:50 15.8 °C 15.0 °C 1020.9 hPa Calm     93 % 0.0 mm
20:55 15.9 °C 15.0 °C 1020.9 hPa Calm     93 % 0.0 mm
21:00 15.9 °C 15.0 °C 1020.9 hPa Calm     94 % 0.0 mm
21:05 15.9 °C 15.0 °C 1020.9 hPa Calm     94 % 0.0 mm
21:10 16.0 °C 15.0 °C 1020.9 hPa Calm     94 % 0.0 mm
21:15 16.1 °C 15.0 °C 1020.9 hPa Calm     94 % 0.0 mm
21:20 16.1 °C 15.0 °C 1020.9 hPa Calm     94 % 0.0 mm
21:22 16.0 °C 15.0 °C 1020.9 hPa Calm     94 % 0.0 mm
21:27 16.1 °C 15.0 °C 1020.9 hPa Calm     94 % 0.0 mm
21:32 16.1 °C 15.0 °C 1020.9 hPa Calm     95 % 0.0 mm
21:37 16.2 °C 16.0 °C 1020.9 hPa Calm     95 % 0.0 mm
21:42 16.4 °C 16.0 °C 1020.9 hPa Calm     95 % 0.0 mm
21:48 16.6 °C 16.0 °C 1020.9 hPa Calm     96 % 0.0 mm
21:53 16.7 °C 16.0 °C 1020.9 hPa Calm     96 % 0.0 mm
21:58 16.7 °C 16.0 °C 1020.9 hPa Calm     96 % 0.0 mm
22:03 16.8 °C 16.0 °C 1019.9 hPa Calm     96 % 0.0 mm
22:08 16.8 °C 16.0 °C 1019.9 hPa Calm     96 % 0.0 mm
22:13 16.7 °C 16.0 °C 1019.9 hPa Calm     96 % 0.0 mm
22:18 16.6 °C 16.0 °C 1019.9 hPa Calm     96 % 0.0 mm
22:23 16.5 °C 16.0 °C 1019.9 hPa Calm     96 % 0.0 mm
22:28 16.4 °C 16.0 °C 1019.9 hPa Calm     96 % 0.0 mm
22:33 16.2 °C 16.0 °C 1020.9 hPa South 1.8 km/h 1.8 km/h 96 % 0.0 mm
22:38 16.2 °C 16.0 °C 1020.9 hPa South 1.8 km/h 1.8 km/h 96 % 0.0 mm
22:43 16.1 °C 16.0 °C 1020.9 hPa South 1.8 km/h 1.8 km/h 96 % 0.0 mm
22:48 15.9 °C 16.0 °C 1020.9 hPa South 1.8 km/h 1.8 km/h 96 % 0.0 mm
22:53 15.9 °C 16.0 °C 1020.9 hPa South 1.8 km/h 1.8 km/h 96 % 0.0 mm
22:58 15.8 °C 15.0 °C 1020.9 hPa South 1.8 km/h 1.8 km/h 96 % 0.0 mm
23:03 15.7 °C 15.0 °C 1019.9 hPa Calm     96 % 0.0 mm
23:08 15.5 °C 15.0 °C 1019.9 hPa Calm     96 % 0.0 mm
23:14 15.4 °C 15.0 °C 1019.9 hPa Calm     97 % 0.0 mm
23:19 15.3 °C 15.0 °C 1020.9 hPa Calm     97 % 0.0 mm
23:24 15.3 °C 15.0 °C 1020.9 hPa Calm     97 % 0.0 mm
23:29 15.2 °C 15.0 °C 1020.9 hPa Calm     97 % 0.0 mm
23:34 15.2 °C 15.0 °C 1020.9 hPa Calm     97 % 0.0 mm
23:39 15.1 °C 15.0 °C 1020.9 hPa Calm     97 % 0.0 mm
23:44 15.0 °C 15.0 °C 1020.9 hPa Calm     97 % 0.0 mm
23:49 15.0 °C 15.0 °C 1020.9 hPa Calm     97 % 0.0 mm
23:54 14.8 °C 14.0 °C 1020.9 hPa Calm     97 % 0.0 mm
23:59 14.8 °C 14.0 °C 1020.9 hPa Calm     97 % 0.0 mm
Le Gheer Warneton
Courtoisie de Weather Underground - 2.5 mb

Mise a jour : 17-12-17 08:56:12
Généré par Cumulus 1.9.4 (1099)